Weather History for Kalispell, MT

Change the Weather History Date:

Wednesday, February 13, 2013

  Actual Average Record
Temperature  
Mean Temperature 37 °F 27 °F  
Max Temperature 47 °F 35 °F 49 °F (1977)
Min Temperature 27 °F 18 °F -24 °F (1936)
Degree Days  
Heating Degree Days 28 38  
Month to date heating degree days 419 506  
Since 1 July heating degree days 4792 5297  
Cooling Degree Days 0 0  
Month to date cooling degree days 0 0  
Year to date cooling degree days 0 0  
Moisture  
Dew Point 26 °F    
Average Humidity 63    
Maximum Humidity 89    
Minimum Humidity 37    
Precipitation  
Precipitation T in 0.04 in 0.45 in (1982)
Month to date precipitation 0.04 0.44  
Year to date precipitation 0.91 1.77  
Snow  
Snow T in - - ()
Month to date snowfall T  
Year to date snowfall 6.0  
Since 1 July snowfall 14.8  
Snow Depth 0.00 in    
Sea Level Pressure  
Sea Level Pressure 30.10 in    
Wind  
Wind Speed 8 mph (SW)    
Max Wind Speed 20 mph    
Max Gust Speed 26 mph    
Visibility 10 miles    
Events Rain    
T = Trace of Precipitation, MM = Missing Value Source: NWS Daily Summary

Daily Weather History Graph

Daily Weather History Graph

Search for Another Location

Airport:

Trip Planner

Search our weather history database for the weather conditions in past years. The results will help you decide how hot, cold, wet, or windy it might be!

Date:

Astronomy

Feb. 13, 2013 Rise Set
Actual Time 7:46 AM MST 5:56 PM MST
Civil Twilight 7:14 AM MST 6:28 PM MST
Nautical Twilight 6:37 AM MST 7:05 PM MST
Astronomical Twilight 6:01 AM MST 7:41 PM MST
Moon 8:56 AM MST (2/13) 10:28 PM MST (2/13)
Length of Visible Light 11h 14m
Length of Day
10h 09m
Waxing Crescent, 14% of the Moon is Illuminated
Feb 13
Waxing Crescent
Feb 17
First Quarter
Feb 25
Full
Mar 4
Last Quarter
Mar 11
New

Hourly Weather History & Observations

Time (MST) Temp. Windchill Dew Point Humidity Pressure Visibility Wind Dir Wind Speed Gust Speed Precip Events Conditions
12:55 AM 37.0 °F 28.1 °F 30.0 °F 76% 30.08 in 10.0 mi SE 15.0 mph - N/A   Overcast
1:55 AM 37.0 °F 28.9 °F 30.0 °F 76% 30.04 in 10.0 mi SSE 12.7 mph - N/A   Overcast
2:55 AM 37.0 °F 29.8 °F 30.0 °F 76% 30.02 in 10.0 mi SSE 10.4 mph - N/A   Overcast
3:55 AM 37.0 °F 29.8 °F 30.9 °F 79% 30.02 in 10.0 mi SSE 10.4 mph - N/A   Overcast
4:55 AM 39.0 °F 33.4 °F 30.9 °F 73% 30.00 in 10.0 mi South 8.1 mph - 0.00 in   Overcast
5:55 AM 34.0 °F - 30.0 °F 85% 30.03 in 10.0 mi Calm Calm - N/A   Overcast
6:55 AM 37.0 °F 27.0 °F 30.9 °F 79% 30.03 in 10.0 mi WNW 18.4 mph 26.5 mph 0.00 in Rain Light Rain
7:55 AM 34.0 °F - 28.0 °F 79% 30.06 in 10.0 mi Calm Calm - 0.00 in   Scattered Clouds
8:55 AM 39.0 °F - 28.9 °F 67% 30.08 in 10.0 mi Calm Calm - N/A   Scattered Clouds
9:55 AM 41.0 °F 37.1 °F 28.9 °F 62% 30.09 in 10.0 mi SE 5.8 mph - N/A   Scattered Clouds
10:55 AM 42.1 °F 35.7 °F 30.9 °F 65% 30.10 in 10.0 mi SE 11.5 mph - N/A   Overcast
11:55 AM 44.1 °F 40.8 °F 25.0 °F 47% 30.10 in 10.0 mi SSW 5.8 mph - N/A   Mostly Cloudy
12:55 PM 46.0 °F 41.0 °F 24.1 °F 42% 30.09 in 10.0 mi WSW 10.4 mph - N/A   Mostly Cloudy
1:55 PM 45.0 °F 39.7 °F 24.1 °F 44% 30.08 in 10.0 mi SW 10.4 mph - N/A   Mostly Cloudy
2:55 PM 46.0 °F 40.6 °F 21.0 °F 37% 30.07 in 10.0 mi WSW 11.5 mph 19.6 mph N/A   Mostly Cloudy
3:55 PM 45.0 °F 40.6 °F 19.0 °F 36% 30.09 in 10.0 mi West 8.1 mph 17.3 mph N/A   Overcast
4:55 PM 43.0 °F 36.8 °F 21.9 °F 43% 30.11 in 10.0 mi West 11.5 mph 17.3 mph N/A   Overcast
5:55 PM 39.9 °F 37.8 °F 21.9 °F 49% 30.14 in 10.0 mi West 3.5 mph - N/A   Overcast
6:55 PM 41.0 °F 34.7 °F 23.0 °F 49% 30.16 in 10.0 mi West 10.4 mph - N/A   Mostly Cloudy
7:55 PM 36.0 °F 31.1 °F 24.1 °F 62% 30.19 in 10.0 mi WNW 5.8 mph - N/A   Scattered Clouds
8:55 PM 37.0 °F 31.6 °F 24.1 °F 59% 30.19 in 10.0 mi West 6.9 mph - N/A   Clear
9:55 PM 35.1 °F 32.2 °F 23.0 °F 61% 30.22 in 10.0 mi WSW 3.5 mph - N/A   Clear
10:55 PM 32.0 °F - 23.0 °F 69% 30.24 in 10.0 mi Calm Calm - N/A   Clear
11:55 PM 27.0 °F - 23.0 °F 85% 30.25 in 10.0 mi Calm Calm - N/A   Clear